• In United Kingdom
  • List of Countries
  • For 7 days
  • Water Temperature
  • Satellite Maps
  • Weather Map
  • Weather Widgets
  • user-avatar
    Login

    Hourly Weather Lubango

    Today, 13 December, Wednesday

    Time Temperature Precipitation Wind Pressure Humidity
    00:00 +15°C° 0 mm 1 mps 608 mmHg 87%
    01:00 +15°C° 0 mm 1 mps 608 mmHg 88%
    02:00 +15°C° 0.2 mm 1 mps 608 mmHg 88%
    03:00 +15°C° 0.2 mm 1 mps 608 mmHg 88%
    04:00 +15°C° 0.2 mm 1 mps 608 mmHg 89%
    05:00 +15°C° 0.5 mm 1 mps 608 mmHg 85%
    06:00 +16°C° 0.5 mm 1 mps 609 mmHg 82%
    07:00 +16°C° 0.5 mm 1 mps 609 mmHg 79%
    08:00 +19°C° 0.7 mm 1 mps 610 mmHg 74%
    09:00 +20°C° 0.7 mm 1 mps 610 mmHg 70%
    10:00 +21°C° 0.7 mm 1 mps 611 mmHg 65%
    11:00 +21°C° 0.8 mm 1 mps 611 mmHg 64%
    12:00 +21°C° 0.8 mm 2 mps 611 mmHg 62%
    13:00 +21°C° 0.8 mm 2 mps 611 mmHg 61%
    14:00 +21°C° 0.4 mm 2 mps 610 mmHg 61%
    15:00 +21°C° 0.4 mm 2 mps 610 mmHg 62%
    16:00 +20°C° 0.4 mm 2 mps 609 mmHg 63%
    17:00 +20°C° 0.1 mm 1 mps 609 mmHg 66%
    18:00 +20°C° 0.1 mm 1 mps 609 mmHg 70%
    19:00 +19°C° 0.1 mm 1 mps 609 mmHg 74%
    20:00 +18°C° 0 mm 1 mps 609 mmHg 76%
    21:00 +18°C° 0 mm 1 mps 609 mmHg 78%
    22:00 +16°C° 0 mm 1 mps 610 mmHg 81%
    23:00 +16°C° 0.1 mm 1 mps 609 mmHg 82%

    Tomorrow, 14 December, Thursday

    Time Temperature Precipitation Wind Pressure Humidity
    00:00 +16°C° 0.1 mm 1 mps 609 mmHg 83%
    01:00 +16°C° 0.1 mm 1 mps 609 mmHg 84%
    02:00 +15°C° 0.1 mm 1 mps 609 mmHg 84%
    03:00 +15°C° 0.1 mm 1 mps 608 mmHg 84%
    04:00 +14°C° 0.1 mm 0 mps 608 mmHg 84%
    05:00 +15°C° 0 mm 0 mps 609 mmHg 81%
    06:00 +15°C° 0 mm 0 mps 609 mmHg 77%
    07:00 +16°C° 0 mm 0 mps 610 mmHg 74%
    08:00 +20°C° 0 mm 1 mps 611 mmHg 66%
    09:00 +22°C° 0 mm 1 mps 611 mmHg 58%
    10:00 +24°C° 0 mm 1 mps 612 mmHg 50%
    11:00 +25°C° 0 mm 1 mps 612 mmHg 46%
    12:00 +26°C° 0 mm 2 mps 612 mmHg 41%
    13:00 +27°C° 0 mm 2 mps 612 mmHg 37%
    14:00 +27°C° 0.3 mm 2 mps 611 mmHg 39%
    15:00 +26°C° 0.3 mm 3 mps 610 mmHg 41%
    16:00 +26°C° 0.3 mm 3 mps 610 mmHg 43%
    17:00 +24°C° 0.1 mm 3 mps 609 mmHg 50%
    18:00 +21°C° 0.1 mm 2 mps 609 mmHg 57%
    19:00 +19°C° 0.1 mm 2 mps 609 mmHg 65%
    20:00 +18°C° 0.2 mm 2 mps 609 mmHg 68%
    21:00 +18°C° 0.2 mm 1 mps 609 mmHg 72%
    22:00 +18°C° 0.2 mm 1 mps 609 mmHg 75%
    23:00 +16°C° 0 mm 1 mps 609 mmHg 77%

    Day after tomorrow, 15 December, Friday

    Time Temperature Precipitation Wind Pressure Humidity
    00:00 +16°C° 0 mm 1 mps 608 mmHg 79%
    01:00 +15°C° 0 mm 1 mps 608 mmHg 81%
    02:00 +15°C° 0 mm 1 mps 608 mmHg 81%
    03:00 +15°C° 0 mm 1 mps 607 mmHg 82%
    04:00 +13°C° 0 mm 0 mps 607 mmHg 82%
    05:00 +15°C° 0 mm 0 mps 608 mmHg 76%
    06:00 +16°C° 0 mm 0 mps 609 mmHg 71%
    07:00 +17°C° 0 mm 0 mps 609 mmHg 65%
    08:00 +22°C° 0 mm 1 mps 610 mmHg 54%
    09:00 +24°C° 0 mm 1 mps 612 mmHg 43%
    10:00 +27°C° 0 mm 1 mps 613 mmHg 31%
    11:00 +28°C° 0 mm 1 mps 612 mmHg 29%
    12:00 +29°C° 0 mm 2 mps 612 mmHg 26%
    13:00 +31°C° 0 mm 2 mps 612 mmHg 23%
    14:00 +30°C° 0 mm 3 mps 611 mmHg 25%
    15:00 +29°C° 0 mm 3 mps 610 mmHg 26%
    16:00 +28°C° 0 mm 3 mps 610 mmHg 28%
    17:00 +26°C° 0 mm 3 mps 609 mmHg 34%
    18:00 +22°C° 0 mm 3 mps 609 mmHg 40%
    19:00 +20°C° 0 mm 2 mps 608 mmHg 46%
    20:00 +19°C° 0 mm 2 mps 608 mmHg 49%
    21:00 +19°C° 0 mm 1 mps 608 mmHg 52%
    22:00 +18°C° 0 mm 1 mps 608 mmHg 55%
    23:00 +16°C° 0 mm 1 mps 608 mmHg 56%

    16 December, Saturday

    Time Temperature Precipitation Wind Pressure Humidity
    00:00 +16°C° 0 mm 1 mps 607 mmHg 57%
    01:00 +15°C° 0 mm 1 mps 607 mmHg 58%
    02:00 +15°C° 0 mm 1 mps 607 mmHg 58%
    03:00 +15°C° 0 mm 1 mps 606 mmHg 58%
    04:00 +15°C° 0 mm 1 mps 606 mmHg 59%
    05:00 +16°C° 0 mm 1 mps 607 mmHg 55%
    06:00 +18°C° 0 mm 1 mps 608 mmHg 52%
    07:00 +19°C° 0 mm 1 mps 609 mmHg 49%
    08:00 +22°C° 0 mm 1 mps 610 mmHg 40%
    09:00 +24°C° 0 mm 1 mps 611 mmHg 32%
    10:00 +27°C° 0 mm 2 mps 612 mmHg 24%
    11:00 +28°C° 0 mm 2 mps 612 mmHg 22%
    12:00 +29°C° 0 mm 2 mps 612 mmHg 20%
    13:00 +31°C° 0 mm 2 mps 611 mmHg 18%
    14:00 +30°C° 0 mm 3 mps 611 mmHg 19%
    15:00 +30°C° 0 mm 3 mps 610 mmHg 21%
    16:00 +29°C° 0 mm 4 mps 610 mmHg 22%
    17:00 +26°C° 0 mm 3 mps 609 mmHg 28%
    18:00 +22°C° 0 mm 3 mps 608 mmHg 34%
    19:00 +19°C° 0 mm 2 mps 608 mmHg 40%
    20:00 +18°C° 0 mm 2 mps 608 mmHg 44%
    21:00 +18°C° 0 mm 1 mps 608 mmHg 48%
    22:00 +16°C° 0 mm 1 mps 608 mmHg 51%
    23:00 +16°C° 0 mm 1 mps 608 mmHg 52%

    17 December, Sunday

    Time Temperature Precipitation Wind Pressure Humidity
    00:00 +15°C° 0 mm 1 mps 607 mmHg 52%
    01:00 +15°C° 0 mm 1 mps 607 mmHg 53%
    02:00 +15°C° 0 mm 1 mps 607 mmHg 53%
    03:00 +14°C° 0 mm 1 mps 606 mmHg 53%
    04:00 +13°C° 0 mm 0 mps 606 mmHg 53%
    05:00 +14°C° 0 mm 0 mps 607 mmHg 49%
    06:00 +16°C° 0 mm 0 mps 608 mmHg 46%
    07:00 +17°C° 0 mm 0 mps 609 mmHg 42%
    08:00 +21°C° 0 mm 1 mps 610 mmHg 37%
    09:00 +24°C° 0 mm 1 mps 611 mmHg 32%
    10:00 +26°C° 0 mm 2 mps 611 mmHg 27%
    11:00 +27°C° 0 mm 2 mps 611 mmHg 26%
    12:00 +28°C° 0 mm 2 mps 611 mmHg 26%
    13:00 +29°C° 0 mm 3 mps 611 mmHg 25%
    14:00 +27°C° 0 mm 3 mps 610 mmHg 29%
    15:00 +25°C° 0 mm 3 mps 609 mmHg 33%
    16:00 +24°C° 0 mm 3 mps 609 mmHg 37%
    17:00 +21°C° 0 mm 3 mps 609 mmHg 44%
    18:00 +19°C° 0 mm 3 mps 609 mmHg 50%
    19:00 +18°C° 0 mm 2 mps 609 mmHg 57%
    20:00 +17°C° 0 mm 2 mps 609 mmHg 63%
    21:00 +15°C° 0 mm 1 mps 608 mmHg 69%
    22:00 +14°C° 0 mm 1 mps 608 mmHg 75%
    23:00 +14°C° 0 mm 1 mps 608 mmHg 76%

    18 December, Monday

    Time Temperature Precipitation Wind Pressure Humidity
    00:00 +14°C° 0 mm 1 mps 608 mmHg 77%
    01:00 +14°C° 0 mm 1 mps 608 mmHg 78%
    02:00 +14°C° 0 mm 1 mps 607 mmHg 77%
    03:00 +13°C° 0 mm 0 mps 607 mmHg 77%
    04:00 +13°C° 0 mm 0 mps 607 mmHg 76%
    05:00 +14°C° 0 mm 0 mps 608 mmHg 71%
    06:00 +16°C° 0 mm 1 mps 609 mmHg 65%
    07:00 +18°C° 0 mm 1 mps 609 mmHg 60%
    08:00 +19°C° 0 mm 1 mps 610 mmHg 54%
    09:00 +21°C° 0 mm 1 mps 610 mmHg 47%
    10:00 +23°C° 0 mm 1 mps 611 mmHg 41%
    11:00 +24°C° 0.1 mm 1 mps 611 mmHg 40%
    12:00 +24°C° 0.1 mm 1 mps 611 mmHg 40%
    13:00 +25°C° 0.1 mm 1 mps 610 mmHg 39%
    14:00 +25°C° 0.3 mm 1 mps 610 mmHg 41%
    15:00 +24°C° 0.3 mm 2 mps 609 mmHg 44%
    16:00 +24°C° 0.3 mm 2 mps 609 mmHg 46%
    17:00 +21°C° 0.1 mm 2 mps 609 mmHg 50%
    18:00 +20°C° 0.1 mm 2 mps 609 mmHg 54%
    19:00 +19°C° 0.1 mm 2 mps 609 mmHg 58%
    20:00 +19°C° 0 mm 1 mps 608 mmHg 62%
    21:00 +18°C° 0 mm 1 mps 608 mmHg 65%
    22:00 +16°C° 0 mm 1 mps 608 mmHg 68%
    23:00 +15°C° 0 mm 0 mps 608 mmHg 70%
    Show more